Weather History for KSRQ - January, 2005

Change the Weather History Date:

Monday, January 3, 2005

  Actual Average Record
Temperature  
Mean Temperature 66 °F 61 °F  
Max Temperature 75 °F 71 °F 85 °F (1989)
Min Temperature 57 °F 52 °F 30 °F (1979)
Degree Days  
Heating Degree Days 0 6  
Month to date heating degree days 16  
Since 1 July heating degree days 171  
Cooling Degree Days 1 2  
Month to date cooling degree days 6  
Year to date cooling degree days 6  
Growing Degree Days 16 (Base 50)    
Moisture  
Dew Point 58 °F    
Average Humidity 75    
Maximum Humidity 93    
Minimum Humidity 50    
Precipitation  
Precipitation 0.00 in 0.12 in 2.78 in (1923)
Month to date precipitation 0.36  
Year to date precipitation 0.36  
Sea Level Pressure  
Sea Level Pressure 30.31 in    
Wind  
Wind Speed 8 mph (ENE)    
Max Wind Speed 14 mph    
Max Gust Speed -    
Visibility 10 miles    
Events      
T = Trace of Precipitation, MM = Missing Value Source: NWS Daily Summary

Daily Weather History Graph

Daily Weather History Graph

Search for Another Location

Airport or City:

Trip Planner

Search our weather history database for the weather conditions in past years. The results will help you decide how hot, cold, wet, or windy it might be!

Date:

Astronomy

Jan. 03, 2005 Rise Set
Actual Time 7:20 AM EST 5:48 PM EST
Civil Twilight 6:55 AM EST 6:14 PM EST
Nautical Twilight 6:26 AM EST 6:43 PM EST
Astronomical Twilight 5:58 AM EST 7:11 PM EST
Moon 12:08 AM EST (1/3) 12:17 PM EST (1/3)
Length of Visible Light 11h 18m
Length of Day
10h 28m
Waning Gibbous, 50% of the Moon is Illuminated
Jan 3
Waning Gibbous
Jan 3
Last Quarter
Jan 10
New
Jan 17
First Quarter
Jan 25
Full

Hourly Weather History & Observations

Time (EST) Temp. Dew Point Humidity Pressure Visibility Wind Dir Wind Speed Gust Speed Precip Events Conditions
12:53 AM 62.1 °F 55.9 °F 80% 30.35 in 10.0 mi NE 6.9 mph - N/A   Clear
1:53 AM 61.0 °F 57.0 °F 87% 30.34 in 10.0 mi ENE 6.9 mph - N/A   Partly Cloudy
2:53 AM 60.1 °F 55.9 °F 86% 30.33 in 10.0 mi ENE 6.9 mph - N/A   Clear
3:53 AM 60.1 °F 57.0 °F 90% 30.33 in 10.0 mi ENE 6.9 mph - N/A   Clear
4:53 AM 59.0 °F 55.9 °F 90% 30.33 in 10.0 mi NE 6.9 mph - N/A   Clear
5:53 AM 59.0 °F 55.9 °F 90% 30.33 in 10.0 mi ENE 5.8 mph - N/A   Clear
6:53 AM 57.9 °F 55.9 °F 93% 30.34 in 10.0 mi NE 6.9 mph - N/A   Clear
7:53 AM 59.0 °F 57.0 °F 93% 30.36 in 8.0 mi ENE 5.8 mph - N/A   Clear
8:53 AM 63.0 °F 59.0 °F 87% 30.36 in 10.0 mi ENE 8.1 mph - N/A   Clear
9:53 AM 69.1 °F 60.1 °F 73% 30.36 in 10.0 mi ENE 9.2 mph - N/A   Clear
10:53 AM 73.9 °F 60.1 °F 62% 30.35 in 10.0 mi East 10.4 mph - N/A   Partly Cloudy
11:53 AM 75.9 °F 59.0 °F 56% 30.32 in 10.0 mi East 13.8 mph - N/A   Scattered Clouds
12:53 PM 73.9 °F 57.0 °F 55% 30.28 in 10.0 mi East 12.7 mph - N/A   Partly Cloudy
1:53 PM 75.9 °F 55.9 °F 50% 30.25 in 10.0 mi East 12.7 mph - N/A   Clear
2:53 PM 75.9 °F 57.9 °F 54% 30.25 in 10.0 mi NE 10.4 mph - N/A   Overcast
3:53 PM 75.9 °F 57.9 °F 54% 30.25 in 10.0 mi ENE 9.2 mph - N/A   Scattered Clouds
4:53 PM 75.0 °F 57.9 °F 55% 30.26 in 10.0 mi ENE 10.4 mph - N/A   Overcast
5:53 PM 72.0 °F 57.9 °F 61% 30.27 in 10.0 mi NE 6.9 mph - N/A   Mostly Cloudy
6:53 PM 68.0 °F 57.9 °F 70% 30.28 in 10.0 mi East 6.9 mph - N/A   Scattered Clouds
7:53 PM 69.1 °F 59.0 °F 70% 30.30 in 10.0 mi East 8.1 mph - N/A   Mostly Cloudy
8:53 PM 66.0 °F 59.0 °F 78% 30.32 in 10.0 mi ENE 5.8 mph - N/A   Clear
9:53 PM 64.0 °F 59.0 °F 84% 30.33 in 10.0 mi East 6.9 mph - N/A   Clear
10:53 PM 62.1 °F 57.9 °F 86% 30.32 in 10.0 mi ENE 5.8 mph - N/A   Clear
11:53 PM 61.0 °F 57.0 °F 87% 30.32 in 10.0 mi ENE 5.8 mph - N/A   Clear